When you browse on this site, cookies collect data to enhance your experience and personalize the content and advertising you see.
Visit our Privacy Policy to learn more. By continuing to use the site, you agree to this use of cookies and data.
  • In Latvia
  • List of Countries
  • For 7 days
  • Water Temperature
  • Weather Map
  • Weather Widgets
  • user-avatar
    Login

    Hourly Weather Maseru

    Today, 23 February, Sunday

    Time Temperature Precipitation Wind Pressure Humidity
    00:00 +17°C° 0.2 mm 0 mps 635 mmHg 90%
    01:00 +16°C° 0.2 mm 0 mps 634 mmHg 90%
    02:00 +18°C° 0 mm 1 mps 635 mmHg 84%
    03:00 +18°C° 0 mm 1 mps 635 mmHg 86%
    04:00 +16°C° 0 mm 1 mps 635 mmHg 88%
    05:00 +15°C° 0 mm 1 mps 635 mmHg 90%
    06:00 +18°C° 0 mm 1 mps 636 mmHg 85%
    07:00 +19°C° 0 mm 1 mps 636 mmHg 80%
    08:00 +19°C° 0 mm 0 mps 637 mmHg 75%
    09:00 +20°C° 0.1 mm 0 mps 638 mmHg 66%
    10:00 +24°C° 0.1 mm 1 mps 638 mmHg 57%
    11:00 +26°C° 0.1 mm 1 mps 639 mmHg 48%
    12:00 +27°C° 0 mm 1 mps 639 mmHg 41%
    13:00 +28°C° 0 mm 2 mps 639 mmHg 33%
    14:00 +29°C° 0 mm 3 mps 639 mmHg 25%
    15:00 +29°C° 0 mm 3 mps 639 mmHg 26%
    16:00 +29°C° 0 mm 4 mps 638 mmHg 26%
    17:00 +29°C° 0 mm 4 mps 638 mmHg 26%
    18:00 +26°C° 0 mm 4 mps 638 mmHg 36%
    19:00 +22°C° 0 mm 3 mps 637 mmHg 47%
    20:00 +19°C° 0 mm 3 mps 637 mmHg 57%
    21:00 +18°C° 0 mm 2 mps 637 mmHg 65%
    22:00 +18°C° 0 mm 1 mps 637 mmHg 73%
    23:00 +16°C° 0 mm 1 mps 637 mmHg 81%

    Tomorrow, 24 February, Monday

    Time Temperature Precipitation Wind Pressure Humidity
    00:00 +15°C° 0 mm 1 mps 637 mmHg 82%
    01:00 +14°C° 0 mm 1 mps 637 mmHg 84%
    02:00 +14°C° 0 mm 1 mps 637 mmHg 86%
    03:00 +12°C° 0 mm 0 mps 637 mmHg 87%
    04:00 +12°C° 0 mm 0 mps 637 mmHg 89%
    05:00 +11°C° 0 mm 0 mps 637 mmHg 91%
    06:00 +13°C° 0 mm 0 mps 638 mmHg 84%
    07:00 +15°C° 0 mm 1 mps 639 mmHg 77%
    08:00 +18°C° 0 mm 1 mps 639 mmHg 71%
    09:00 +19°C° 0 mm 2 mps 640 mmHg 63%
    10:00 +21°C° 0 mm 2 mps 640 mmHg 55%
    11:00 +24°C° 0 mm 3 mps 640 mmHg 47%
    12:00 +25°C° 0 mm 4 mps 640 mmHg 42%
    13:00 +27°C° 0 mm 4 mps 640 mmHg 37%
    14:00 +28°C° 0 mm 4 mps 639 mmHg 32%
    15:00 +28°C° 0 mm 4 mps 639 mmHg 31%
    16:00 +28°C° 0 mm 4 mps 639 mmHg 30%
    17:00 +28°C° 0 mm 4 mps 639 mmHg 29%
    18:00 +25°C° 0 mm 3 mps 638 mmHg 35%
    19:00 +21°C° 0 mm 2 mps 637 mmHg 41%
    20:00 +19°C° 0 mm 1 mps 637 mmHg 47%
    21:00 +17°C° 0 mm 0 mps 637 mmHg 48%
    22:00 +16°C° 0 mm 0 mps 637 mmHg 50%
    23:00 +16°C° 0 mm 0 mps 637 mmHg 51%

    Day after tomorrow, 25 February, Tuesday

    Time Temperature Precipitation Wind Pressure Humidity
    00:00 +16°C° 0 mm 1 mps 637 mmHg 52%
    01:00 +16°C° 0 mm 1 mps 636 mmHg 53%
    02:00 +16°C° 0 mm 1 mps 636 mmHg 54%
    03:00 +15°C° 0 mm 1 mps 636 mmHg 57%
    04:00 +14°C° 0 mm 1 mps 636 mmHg 61%
    05:00 +14°C° 0 mm 1 mps 636 mmHg 65%
    06:00 +16°C° 0 mm 1 mps 636 mmHg 60%
    07:00 +19°C° 0 mm 1 mps 637 mmHg 55%
    08:00 +21°C° 0 mm 1 mps 638 mmHg 50%
    09:00 +21°C° 0 mm 2 mps 638 mmHg 45%
    10:00 +24°C° 0 mm 2 mps 638 mmHg 40%
    11:00 +26°C° 0 mm 2 mps 639 mmHg 35%
    12:00 +27°C° 0 mm 2 mps 638 mmHg 32%
    13:00 +29°C° 0 mm 2 mps 638 mmHg 29%
    14:00 +30°C° 0 mm 2 mps 638 mmHg 25%
    15:00 +30°C° 0 mm 2 mps 637 mmHg 25%
    16:00 +30°C° 0 mm 2 mps 637 mmHg 25%
    17:00 +30°C° 0 mm 2 mps 637 mmHg 25%
    18:00 +27°C° 0 mm 2 mps 636 mmHg 30%
    19:00 +24°C° 0 mm 1 mps 635 mmHg 36%
    20:00 +21°C° 0 mm 1 mps 635 mmHg 42%
    21:00 +21°C° 0 mm 1 mps 635 mmHg 42%
    22:00 +21°C° 0 mm 1 mps 635 mmHg 42%
    23:00 +20°C° 0 mm 1 mps 635 mmHg 42%

    26 February, Wednesday

    Time Temperature Precipitation Wind Pressure Humidity
    00:00 +20°C° 0 mm 1 mps 635 mmHg 45%
    01:00 +19°C° 0 mm 1 mps 634 mmHg 47%
    02:00 +19°C° 0 mm 1 mps 634 mmHg 50%
    03:00 +18°C° 0 mm 1 mps 634 mmHg 52%
    04:00 +18°C° 0 mm 1 mps 634 mmHg 55%
    05:00 +16°C° 0 mm 1 mps 634 mmHg 57%
    06:00 +19°C° 0 mm 1 mps 635 mmHg 54%
    07:00 +20°C° 0 mm 2 mps 636 mmHg 52%
    08:00 +21°C° 0 mm 2 mps 637 mmHg 49%
    09:00 +24°C° 0 mm 2 mps 637 mmHg 45%
    10:00 +26°C° 0 mm 1 mps 637 mmHg 41%
    11:00 +28°C° 0 mm 1 mps 638 mmHg 36%
    12:00 +29°C° 0 mm 2 mps 637 mmHg 34%
    13:00 +30°C° 0 mm 2 mps 637 mmHg 32%
    14:00 +30°C° 0 mm 2 mps 637 mmHg 30%
    15:00 +30°C° 0 mm 3 mps 637 mmHg 30%
    16:00 +30°C° 0 mm 3 mps 637 mmHg 30%
    17:00 +30°C° 0 mm 3 mps 636 mmHg 30%
    18:00 +27°C° 0 mm 2 mps 636 mmHg 38%
    19:00 +24°C° 0 mm 2 mps 635 mmHg 45%
    20:00 +22°C° 0 mm 1 mps 635 mmHg 53%
    21:00 +21°C° 0 mm 1 mps 635 mmHg 55%
    22:00 +20°C° 0 mm 1 mps 634 mmHg 57%
    23:00 +18°C° 0 mm 0 mps 634 mmHg 58%

    27 February, Thursday

    Time Temperature Precipitation Wind Pressure Humidity
    00:00 +20°C° 0 mm 1 mps 634 mmHg 59%
    01:00 +20°C° 0 mm 1 mps 634 mmHg 59%
    02:00 +19°C° 0 mm 1 mps 634 mmHg 59%
    03:00 +19°C° 0 mm 1 mps 634 mmHg 62%
    04:00 +18°C° 0 mm 1 mps 634 mmHg 66%
    05:00 +18°C° 0 mm 1 mps 634 mmHg 69%
    06:00 +18°C° 0 mm 2 mps 634 mmHg 65%
    07:00 +20°C° 0 mm 2 mps 635 mmHg 61%
    08:00 +21°C° 0 mm 3 mps 636 mmHg 58%
    09:00 +21°C° 0.2 mm 3 mps 636 mmHg 62%
    10:00 +20°C° 0.2 mm 3 mps 636 mmHg 67%
    11:00 +20°C° 0.2 mm 3 mps 636 mmHg 72%
    12:00 +19°C° 0.8 mm 3 mps 635 mmHg 74%
    13:00 +19°C° 0.8 mm 2 mps 635 mmHg 76%
    14:00 +19°C° 0.8 mm 2 mps 635 mmHg 78%
    15:00 +19°C° 0.2 mm 2 mps 635 mmHg 77%
    16:00 +20°C° 0.2 mm 1 mps 635 mmHg 76%
    17:00 +18°C° 0.2 mm 0 mps 635 mmHg 75%
    18:00 +17°C° 0 mm 0 mps 635 mmHg 78%
    19:00 +18°C° 0 mm 1 mps 635 mmHg 82%
    20:00 +16°C° 0 mm 1 mps 635 mmHg 86%
    21:00 +18°C° 0 mm 1 mps 635 mmHg 84%
    22:00 +16°C° 0 mm 0 mps 636 mmHg 82%
    23:00 +16°C° 0 mm 0 mps 636 mmHg 81%

    28 February, Friday

    Time Temperature Precipitation Wind Pressure Humidity
    00:00 +16°C° 0.1 mm 0 mps 636 mmHg 82%
    01:00 +18°C° 0.1 mm 1 mps 636 mmHg 83%
    02:00 +18°C° 0.1 mm 1 mps 636 mmHg 84%
    03:00 +16°C° 0.1 mm 1 mps 636 mmHg 85%
    04:00 +16°C° 0.1 mm 1 mps 636 mmHg 86%
    05:00 +15°C° 0.1 mm 1 mps 636 mmHg 87%
    06:00 +16°C° 0.4 mm 1 mps 637 mmHg 84%
    07:00 +16°C° 0.4 mm 0 mps 637 mmHg 81%
    08:00 +17°C° 0.4 mm 0 mps 638 mmHg 79%
    09:00 +20°C° 0.2 mm 1 mps 638 mmHg 76%
    10:00 +20°C° 0.2 mm 1 mps 638 mmHg 74%
    11:00 +20°C° 0.2 mm 2 mps 638 mmHg 72%
    12:00 +20°C° 0.4 mm 2 mps 638 mmHg 69%
    13:00 +21°C° 0.4 mm 2 mps 638 mmHg 66%
    14:00 +21°C° 0.4 mm 3 mps 638 mmHg 62%
    15:00 +21°C° 1 mm 2 mps 638 mmHg 64%
    16:00 +21°C° 1 mm 2 mps 638 mmHg 65%
    17:00 +20°C° 1 mm 2 mps 638 mmHg 67%
    18:00 +19°C° 0.6 mm 2 mps 638 mmHg 73%
    19:00 +17°C° 0.6 mm 3 mps 638 mmHg 79%
    20:00 +16°C° 0.6 mm 3 mps 639 mmHg 85%
    21:00 +16°C° 0.1 mm 3 mps 639 mmHg 86%
    22:00 +15°C° 0.1 mm 2 mps 639 mmHg 87%
    23:00 +15°C° 0.1 mm 2 mps 639 mmHg 88%
    Show more